Погода в Змеиногорске

Погода в Змеиногорске : погода сейчас, прогноз погоды и архив. Всё, что Вы хотите узнать о погоде в Змеиногорске!

Хотите узнать прогноз погоды в Змеиногорске? Тогда Вам сюда: Погода в Змеиногорске

Поиск расширенной информации на нашем сайте:

Другие новости

Новости СМИ2

Главная страница сайта

Новости сайта

03.07.2017

Напоминаем, что на нашем специализированном сайте Метеоцентр.Азия вы можете получить высокодетализированные автоматические прогнозы погоды по пунктам России, СНГ и мира в авиационном формате (включающие направление и скорость ветра, видимость, явления погоды, количество и форму облачности, нижнюю и верхнюю границу облачности).


Погода в Змеиногорске - сегодня

Время (UTC), дата Ветер
(°,м/с) 
Видим.   Явления Облачность Т
(°С)
Тd
(°С)
f(%) Тe
(°С)
Pmin
(гПа)
dP
(гПа)
Po
(мм)
O2
(г/м3)
Тmin Tmax R s Состояние
почвы
15 21.09.17 150 (ЮВ) 20000 м  {ливн. осадки}  10/10 600 м кучево-дожд. 
[Cb cap]
+12.3 +11 92 +17  1010.5  0.1  727  278           
18 21.09.17 350 (С) 20000 м  {ливн. осадки}  10/10 600 м кучево-дожд. 
[Cb cap]
+11.3 +8.3 82 +12  1011.7  727  280           
21 21.09.17 тихо ()   20000 м    10/8 600 м верхняя 
[Sc|Cs]
+6.7 +4.6 86 +7  1013.4  0.9  728  286           
00 22.09.17 020 (С) 20000 м    9/9 600 м 
[Sc]
+4.6 +3.3 91 +5  1014.4  0.6  728  288  +4.3      влажная 
03 22.09.17 310 (СЗ) 20000 м    10/8 300 м средняя, верхняя 
[St|Ac cast|Ci]
+7.7 +5.1 84 +8  1015.1  1.2  729  285           
06 22.09.17 330 (СЗ) 20000 м    10/10 600 м кучево-дожд. 
[Cb cap]
+9.4 +2.1 60 +9  1015.4  0.5  730  284           
09 22.09.17 280 (З) 20000 м    9/9 600 м кучево-дожд. 
[Cb cap]
+9.7 +2.8 62 +10  1015.7  0.3  730  284           
12 22.09.17 320 (СЗ) 20000 м    10/9 600 м верхняя 
[Sc|Ci fib]
+8.8 +2.5 65 +10  1016  0.2  730  285    +10.1       
15 22.09.17 тихо ()   20000 м    10/10 600 м 
[Sc]
+6.9 +3.6 79 +7  1016.3  730  286           
18 22.09.17 тихо ()   20000 м    10/10 600 м 
[Sc]
+6 +3.3 83 +6  1015.2  -1.2  729  287           
21 22.09.17 тихо ()   20000 м    10/10 600 м 
[Sc]
+5.5 +3.4 86 +6  1014.6  -0.7  729  287           
00 23.09.17 тихо ()   20000 м    10/10 600 м 
[Sc]
+5.2 +3.3 88 +5  1013.7  -0.8  728  287  +5.2        влажная 
03 23.09.17 330 (СЗ) 20000 м  {ливн. осадки}  10/10 600 м кучево-дожд. 
[Cb cap]
+5.7 +2.8 82 +7  1013.5  -0.2  728  287  +5         
06 23.09.17 350 (С) 20000 м  в посл. час ливневой дождь  10/10 600 м кучево-дожд. 
[Cb cap]
+5.9 +1 71 +4  1013.7  0.2  728  287           
09 23.09.17 330 (СЗ) 20000 м  в посл. час ливневой дождь  10/8 600 м кучево-дожд., верхняя 
[Cb cap|Ci]
+5.6 +0.6 70 +4  1014.7  0.9  729  288           
12 23.09.17 320 (СЗ) 3{10}  20000 м  {ливн. осадки}  10/8 600 м верхняя 
[Sc|Ci]
+3.8 -2.2 65 +3  1017.8  2.7  731  291    +7.7     
15 23.09.17 310 (СЗ) 20000 м    10/10 600 м 
[Sc]
+1.1 -3.8 70 +2  1021.1  2.8  733  295           
18 23.09.17 290 (З) 20000 м  в посл. час ливневой снег  10/10 600 м кучево-дожд. 
[Cb cap]
+0.2 -2.7 81 -1  1023  1.6  734  296           
21 23.09.17 280 (З) 10 км  слаб. ливневой снег  10/10 600 м кучево-дожд. 
[Cb cap]
-0.3 -3.1 81 -2  1024.5  1.4  735  297           
00 24.09.17 280 (З) 4000 м  слаб. ливневой снег  10/10 600 м кучево-дожд. 
[Cb cap]
-1.2 -2.7 90 -3  1026.6  1.8  737  298  -1.3    неравномерный
мокрый или
старый снег
100% 
03 24.09.17 280 (З) 2000 м  слаб. ливневой снег  10/10 600 м кучево-дожд. 
[Cb cap]
-0.9 -2.9 86 -2  1028.8  2.2  738  299  -1.5         
06 24.09.17 280 (З) 20000 м  в посл. час крупа{ливн. осадки}  9/9 600 м кучево-дожд. 
[Cb cap]
+0.1 -2.5 83 +1  1030.1  1.4  739  298           
09 24.09.17 070 (В) 2000 м  крупа{ливн. осадки}  10/9 600 м кучево-дожд., верхняя 
[Cb cap|Ci fib]
+0.3 -2.1 84 +1  1031.1  740  298           
12 24.09.17 180 (Ю) 10 км  слаб. ливневой снег  9/9 600 м кучево-дожд. 
[Cb cap]
+2.1 -2.6 71 +3  1032.7  1.8  741  297    +3.8     
15 24.09.17 тихо ()   20000 м  {ливн. осадки}  9/9 600 м 
[Sc]
-0.2 -1.9 88 -0  1034.7  1.6  743  300           
Время (UTC), дата Ветер
(°,м/с) 
Видим.   Явления Облачность Т
(°С)
Тd
(°С)
f(%) Тe
(°С)
Pmin
(гПа)
dP
(гПа)
Po
(мм)
O2
(г/м3)
Тmin Tmax R s Состояние
почвы

Для получения пояснительной информации подведите курсор к названию столбца.

ПОГОДА в Змеиногорске - архив

Всё, что Вы хотите узнать о погоде в Змеиногорске - удобно и подробно!

Выберите нужную дату (начиная с 1 января 2015* года) и нажмите кнопку "Найти".
Будут отображены архивные сводки погоды по пункту Змеиногорск, начиная с указанной даты.


Отображать данные в формате CSV (для использования в таблицах Excel)


Внимание! Наш архив погоды предназначен исключительно для личного некоммерческого использования в познавательных целях. Если Вам необходимы официальные справки о состоянии погоды (для производственных, юридических, коммерческих и т.п. целей), обращайтесь в органы Росгидромета.

*Примечание: данная дата относится к архиву по метеостанциям СССР (Россия, СНГ, Балтия).
Архив по метеостанциям Зарубежной Европы и Азии (кроме Китая) хранится 10 дней, по другим регионам земного шара (Китай, Африка, Америка, Австралия, Океания) - 1 день.

Змеиногорск - район местоположения метеостанции


Название, широта, долгота, высота метеостанции:
Змеиногорск 51.2°ш. 82.2°д. 355 м над ур. моря [Российская Федерация]

Дополнительная информация

В oтличие oт бoльшинства пoгoдных сайтoв мы публикуем пoдрoбную метеoинфoрмацию в детальнoм прoфессиoнальнoм фoрмате.

Характеристики температуры и влажнoсти вoздуха измеряются на высoте 2 м в тени вдали oт зданий и деревьев.
Скoрoсть ветра измеряется на высoте 10 м (на урoвне рoста челoвека скoрoсть ветра ниже в 1.5-2 раза). Если метеoстанция нахoдится в гoрoде или в лесу, тo скoрoсть ветра занижена на 2-4 м/с пo сравнению с oткрытым местoм. Скoрoсть ветра над акватoриями крупных рек и oзёр, а также на вершинах хoлмoв на 2-5 м/с выше, чем в oбычных услoвиях.
Атмoсфернoе давление в разных тoчках местнoсти мoжет значительнo oтличаться oт давления на метеoстанции, в зависимoсти oт услoвий рельефа (при пoдъёме на 10 м давление пoнижается примернo на 1 мм рт.ст.).